• In Czech Republic
  • List of Countries
  • For 7 days
  • Water Temperature
  • Satellite Maps
  • Weather Map
  • Weather Widgets
  • user-avatar
    Login

    Hourly Weather Hobart

    Today, 18 June, Monday

    Time Temperature Precipitation Wind Pressure Humidity
    00:00 +4°C° 0.1 mm 6 mps 752 mmHg 93%
    01:00 +4°C° 0.1 mm 6 mps 753 mmHg 94%
    02:00 +5°C° 0 mm 5 mps 753 mmHg 94%
    03:00 +3°C° 0 mm 5 mps 753 mmHg 94%
    04:00 +3°C° 0 mm 5 mps 754 mmHg 94%
    05:00 +3°C° 0 mm 5 mps 754 mmHg 94%
    06:00 +3°C° 0 mm 5 mps 754 mmHg 94%
    07:00 +3°C° 0 mm 5 mps 755 mmHg 94%
    08:00 +5°C° 0.1 mm 5 mps 755 mmHg 94%
    09:00 +5°C° 0.1 mm 5 mps 755 mmHg 93%
    10:00 +6°C° 0.1 mm 5 mps 756 mmHg 93%
    11:00 +6°C° 0.1 mm 5 mps 756 mmHg 91%
    12:00 +7°C° 0.1 mm 5 mps 756 mmHg 89%
    13:00 +7°C° 0.1 mm 5 mps 756 mmHg 87%
    14:00 +7°C° 0.1 mm 4 mps 756 mmHg 87%
    15:00 +7°C° 0.1 mm 4 mps 756 mmHg 87%
    16:00 +7°C° 0.1 mm 4 mps 756 mmHg 87%
    17:00 +6°C° 0 mm 4 mps 757 mmHg 90%
    18:00 +5°C° 0 mm 3 mps 757 mmHg 93%
    19:00 +4°C° 0 mm 3 mps 758 mmHg 96%
    20:00 +5°C° 0 mm 2 mps 758 mmHg 96%
    21:00 +5°C° 0 mm 2 mps 758 mmHg 96%
    22:00 +4°C° 0 mm 2 mps 759 mmHg 96%
    23:00 +5°C° 0 mm 1 mps 759 mmHg 96%

    Tomorrow, 19 June, Tuesday

    Time Temperature Precipitation Wind Pressure Humidity
    00:00 +5°C° 0 mm 1 mps 759 mmHg 96%
    01:00 +5°C° 0 mm 1 mps 759 mmHg 97%
    02:00 +5°C° 0 mm 1 mps 759 mmHg 97%
    03:00 +5°C° 0 mm 1 mps 759 mmHg 97%
    04:00 +4°C° 0 mm 1 mps 759 mmHg 98%
    05:00 +4°C° 0 mm 1 mps 759 mmHg 98%
    06:00 +4°C° 0 mm 1 mps 759 mmHg 98%
    07:00 +4°C° 0 mm 1 mps 759 mmHg 98%
    08:00 +5°C° 0 mm 1 mps 759 mmHg 95%
    09:00 +6°C° 0 mm 1 mps 759 mmHg 92%
    10:00 +7°C° 0 mm 1 mps 759 mmHg 88%
    11:00 +7°C° 0 mm 2 mps 759 mmHg 83%
    12:00 +9°C° 0 mm 2 mps 758 mmHg 78%
    13:00 +10°C° 0 mm 3 mps 758 mmHg 72%
    14:00 +10°C° 0 mm 3 mps 758 mmHg 75%
    15:00 +9°C° 0 mm 3 mps 758 mmHg 77%
    16:00 +9°C° 0 mm 3 mps 758 mmHg 79%
    17:00 +8°C° 0 mm 3 mps 758 mmHg 85%
    18:00 +5°C° 0 mm 3 mps 758 mmHg 90%
    19:00 +4°C° 0 mm 3 mps 758 mmHg 95%
    20:00 +4°C° 0 mm 3 mps 758 mmHg 95%
    21:00 +3°C° 0 mm 3 mps 759 mmHg 95%
    22:00 +3°C° 0 mm 3 mps 759 mmHg 96%
    23:00 +3°C° 0 mm 3 mps 758 mmHg 95%

    Day after tomorrow, 20 June, Wednesday

    Time Temperature Precipitation Wind Pressure Humidity
    00:00 +3°C° 0 mm 3 mps 758 mmHg 95%
    01:00 +2°C° 0 mm 3 mps 758 mmHg 94%
    02:00 +2°C° 0 mm 3 mps 757 mmHg 94%
    03:00 +2°C° 0 mm 3 mps 757 mmHg 93%
    04:00 +2°C° 0 mm 3 mps 757 mmHg 93%
    05:00 +2°C° 0 mm 3 mps 757 mmHg 93%
    06:00 +2°C° 0 mm 3 mps 756 mmHg 93%
    07:00 +3°C° 0 mm 4 mps 756 mmHg 93%
    08:00 +4°C° 0 mm 4 mps 756 mmHg 89%
    09:00 +5°C° 0 mm 4 mps 756 mmHg 84%
    10:00 +7°C° 0 mm 4 mps 756 mmHg 80%
    11:00 +8°C° 0 mm 4 mps 755 mmHg 75%
    12:00 +11°C° 0 mm 4 mps 755 mmHg 70%
    13:00 +13°C° 0 mm 4 mps 754 mmHg 65%
    14:00 +12°C° 0 mm 4 mps 754 mmHg 68%
    15:00 +12°C° 0 mm 3 mps 754 mmHg 71%
    16:00 +11°C° 0 mm 3 mps 754 mmHg 74%
    17:00 +10°C° 0 mm 3 mps 754 mmHg 79%
    18:00 +9°C° 0 mm 3 mps 754 mmHg 83%
    19:00 +8°C° 0 mm 3 mps 754 mmHg 87%
    20:00 +7°C° 0 mm 3 mps 755 mmHg 88%
    21:00 +6°C° 0 mm 2 mps 755 mmHg 89%
    22:00 +6°C° 0 mm 2 mps 755 mmHg 90%
    23:00 +6°C° 0 mm 2 mps 755 mmHg 89%

    21 June, Thursday

    Time Temperature Precipitation Wind Pressure Humidity
    00:00 +6°C° 0 mm 2 mps 755 mmHg 88%
    01:00 +5°C° 0 mm 2 mps 754 mmHg 86%
    02:00 +6°C° 0 mm 2 mps 754 mmHg 86%
    03:00 +6°C° 0 mm 2 mps 754 mmHg 86%
    04:00 +6°C° 0 mm 2 mps 754 mmHg 86%
    05:00 +6°C° 0 mm 2 mps 754 mmHg 88%
    06:00 +6°C° 0 mm 2 mps 754 mmHg 89%
    07:00 +6°C° 0 mm 2 mps 755 mmHg 91%
    08:00 +8°C° 0 mm 1 mps 755 mmHg 88%
    09:00 +9°C° 0 mm 1 mps 755 mmHg 85%
    10:00 +10°C° 0 mm 1 mps 755 mmHg 82%
    11:00 +11°C° 0 mm 1 mps 755 mmHg 77%
    12:00 +12°C° 0 mm 1 mps 754 mmHg 71%
    13:00 +13°C° 0 mm 2 mps 754 mmHg 66%
    14:00 +13°C° 0 mm 1 mps 754 mmHg 68%
    15:00 +12°C° 0 mm 1 mps 754 mmHg 70%
    16:00 +11°C° 0 mm 1 mps 754 mmHg 72%
    17:00 +10°C° 0 mm 1 mps 754 mmHg 79%
    18:00 +8°C° 0 mm 1 mps 754 mmHg 85%
    19:00 +7°C° 0 mm 1 mps 754 mmHg 92%
    20:00 +6°C° 0 mm 1 mps 754 mmHg 92%
    21:00 +6°C° 0 mm 1 mps 754 mmHg 93%
    22:00 +5°C° 0 mm 2 mps 754 mmHg 94%
    23:00 +4°C° 0 mm 2 mps 754 mmHg 92%

    22 June, Friday

    Time Temperature Precipitation Wind Pressure Humidity
    00:00 +4°C° 0 mm 2 mps 754 mmHg 91%
    01:00 +4°C° 0 mm 2 mps 754 mmHg 90%
    02:00 +4°C° 0 mm 2 mps 753 mmHg 88%
    03:00 +4°C° 0 mm 2 mps 753 mmHg 86%
    04:00 +4°C° 0 mm 2 mps 753 mmHg 84%
    05:00 +4°C° 0 mm 2 mps 753 mmHg 81%
    06:00 +4°C° 0 mm 2 mps 753 mmHg 79%
    07:00 +4°C° 0 mm 2 mps 753 mmHg 76%
    08:00 +6°C° 0 mm 2 mps 753 mmHg 71%
    09:00 +7°C° 0 mm 2 mps 753 mmHg 67%
    10:00 +9°C° 0 mm 2 mps 753 mmHg 62%
    11:00 +10°C° 0 mm 2 mps 752 mmHg 60%
    12:00 +13°C° 0 mm 2 mps 752 mmHg 58%
    13:00 +15°C° 0 mm 2 mps 751 mmHg 57%
    14:00 +14°C° 0 mm 2 mps 751 mmHg 63%
    15:00 +13°C° 0 mm 2 mps 751 mmHg 70%
    16:00 +12°C° 0 mm 2 mps 751 mmHg 76%
    17:00 +10°C° 0.1 mm 2 mps 751 mmHg 80%
    18:00 +10°C° 0.1 mm 3 mps 751 mmHg 85%
    19:00 +9°C° 0.1 mm 3 mps 751 mmHg 89%
    20:00 +8°C° 0 mm 3 mps 750 mmHg 91%
    21:00 +8°C° 0 mm 3 mps 750 mmHg 92%
    22:00 +7°C° 0 mm 3 mps 750 mmHg 94%
    23:00 +7°C° 0 mm 3 mps 750 mmHg 93%

    23 June, Saturday

    Time Temperature Precipitation Wind Pressure Humidity
    00:00 +8°C° 0 mm 3 mps 749 mmHg 92%
    01:00 +8°C° 0 mm 3 mps 749 mmHg 91%
    02:00 +8°C° 0.5 mm 3 mps 748 mmHg 90%
    03:00 +8°C° 0.5 mm 4 mps 748 mmHg 89%
    04:00 +8°C° 0.5 mm 4 mps 748 mmHg 88%
    05:00 +8°C° 0.1 mm 4 mps 748 mmHg 88%
    06:00 +8°C° 0.1 mm 4 mps 748 mmHg 89%
    07:00 +8°C° 0.1 mm 4 mps 748 mmHg 89%
    08:00 +8°C° 0.1 mm 4 mps 748 mmHg 86%
    09:00 +8°C° 0.1 mm 4 mps 748 mmHg 84%
    10:00 +8°C° 0.1 mm 4 mps 749 mmHg 82%
    11:00 +10°C° 0 mm 4 mps 749 mmHg 79%
    12:00 +9°C° 0 mm 5 mps 748 mmHg 76%
    13:00 +10°C° 0 mm 5 mps 748 mmHg 72%
    14:00 +9°C° 0.3 mm 5 mps 749 mmHg 76%
    15:00 +9°C° 0.3 mm 5 mps 749 mmHg 81%
    16:00 +8°C° 0.3 mm 5 mps 750 mmHg 85%
    17:00 +7°C° 0 mm 5 mps 750 mmHg 86%
    18:00 +6°C° 0 mm 5 mps 751 mmHg 87%
    19:00 +5°C° 0 mm 5 mps 752 mmHg 89%
    20:00 +5°C° 0 mm 5 mps 753 mmHg 89%
    21:00 +3°C° 0 mm 5 mps 753 mmHg 90%
    22:00 +3°C° 0 mm 5 mps 754 mmHg 91%
    23:00 +3°C° 0 mm 4 mps 754 mmHg 92%
    Show more